カタログに戻る

STARLINK-11713

運用中通信VLEO
NORAD 64070·PAYLOAD·🇺🇸 United States

打ち上げ May 21, 2025 から Cape Canaveral Space Force Station

Loading…

次のパス (今後24時間)

TLE

最新Source: CelesTrak SupGP

元期: Sep 15, 2026, 04:01 UTC

1 64070C 25107G   26258.16784722 -.00029842  00000+0 -23173-3 0  2585
2 64070  43.0009  36.2804 0001905 252.2476 201.7145 15.70857718    11

AllMySatでSTARLINK-11713をリアルタイム追跡

Download on the App Store